User: anonymous   Login
Location: Unspecified
(0.0000°N, 0.0000°E)
Time: 10:17:54
(UTC+00:00)
Language:

DIDO 2 - Orbit

View from above orbital plane
View from above orbital plane
View from above satellite
View from above satellite

Ground track
Ground track

The orbit data is extracted from the following two-line orbital elements,

1 42000U 17008BE  17294.88524975 +.00001729 +00000-0 +77387-4 0  9998
2 42000 097.4818 355.7762 0010216 122.8018 237.4204 15.22611127037136
Epoch (UTC): 21 October 2017 21:14:45
Eccentricity: 0.0010216
inclination: 97.4818°
perigee height: 491 km
apogee height: 505 km
right ascension of ascending node: 355.7762°
argument of perigee: 122.8018°
revolutions per day: 15.22611127
mean anomaly at epoch: 237.4204°
orbit number at epoch: 3713

The dashed part of the orbit path shows where the satellite is in the earth's shadow,  

DLR